Поиск запчастей

Артикул Бренд Название Остаток Остаток Цена Поставщик Дата обновления
612600030114 CYPR Кольцо поршневое комплект на двигатель (6шт) WP12NG для Weichai CYPR, , шт 19 6870.00 ЯРДД 06.05.26
612600040113 WEICHAI Втулка клапана направляющая WP10.336E40 Weichai, , шт 144 99.00 ЯРДД 06.05.26
612600040452 WEICHAI Болт ГБЦ WP10 WEICHAI, , шт 2 129.00 ЯРДД 06.05.26
612600040646 WEICHAI Прокладка ГБЦ WEICHAI WP12, , шт 48 1205.00 ЯРДД 06.05.26
612600040646 PRC Прокладка ГБЦ для WEICHAI WP12, , шт 72 925.00 ЯРДД 06.05.26
612600061256 WEICHAI Ролик ремня натяжной WP10 WEICHAI, , шт 10 6118.00 ЯРДД 06.05.26
612600061349 WEICHAI Ремень поликлиновой WD10 WEICHAI, , шт 8 1350.00 ЯРДД 06.05.26
612600061730 WEICHAI Термостат Weichai, , шт 21 1700.00 ЯРДД 06.05.26
612600062253 WEICHAI Элемент вискомуфты Weichai WP12,WP13, , шт 5 50000.00 ЯРДД 06.05.26
612600062532 WEICHAI Ремень поликлиновый WEICHAI WP13.550E501, , шт 6 910.00 ЯРДД 06.05.26
612600080200 WEICHAI Шайба прорезиненная Weichai, , шт 34 15.00 ЯРДД 06.05.26
612600090460 PRC Датчик давления и температуры для Weichai WP7NG240E51, , шт 44 1500.00 ЯРДД 06.05.26
612600090682 WEICHAI Ремень поликлиновой WD10 WEICHAI 8РК950, , шт 41 680.00 ЯРДД 06.05.26
612600090766 WEICHAI Датчик давления масла Weichai WP10 ,WP 12, , шт 4 5400.00 ЯРДД 06.05.26
612600090985 WEICHAI Датчик температуры Weichai, , шт 2 2065.00 ЯРДД 06.05.26
612600110456 WEICHAI Прокладка коллектора WEICHAI WP7, , шт 199 28.00 ЯРДД 06.05.26
612600111113 WEICHAI Прокладка ТКР Weichai, , шт 14 190.00 ЯРДД 06.05.26
612600114275 WEICHAI Прокладка трубки подачи масла к турбокомпрессору WP7 WP7 NG Weichai, , шт 111 114.00 ЯРДД 06.05.26
612600116551 PRC Прокладка впускной трубы WP12 для Weichai, , шт 128 110.00 ЯРДД 06.05.26
612600150106 PRC Шайба JAC N350 уплотнительная сливной пробки OE, , шт 44 45.00 ЯРДД 06.05.26
612600190243 WEICHAI Датчик влажности Weichai WP7NG240E51, , шт 14 13700.00 ЯРДД 06.05.26
612600190993 WEICHAI Элемент фильтрующий газовый Weichai, , шт 48 4000.00 ЯРДД 06.05.26
612600191261 WEICHAI Турбокомпрессор WP12 Weichai, , шт 1 100000.00 ЯРДД 06.05.26
612600900276 WEICHAI Комплект прокладок на двигатель Weichai WP10.336E53, , шт 2 1500.00 ЯРДД 06.05.26
612600900277 WEICHAI Комплект прокладок на двигатель Weichai WD12, , шт 2 1673.00 ЯРДД 06.05.26
612630010015 PRC Гильза цилиндра WP10 для Weichai, , шт 42 1740.00 ЯРДД 06.05.26
612630010055 PRC Гильза цилиндра OEM для WEICHAI WP12 WD12 OEM, , шт 20 1800.00 ЯРДД 06.05.26
612630010057 WEICHAI Болт постели коленвала Weichai, , шт 100 250.00 ЯРДД 06.05.26
612630010075 WEICHAI Втулка распредвала WP12NG Weichai, , шт 35 358.00 ЯРДД 06.05.26
612630010107 WEICHAI Кольцо уплотнительное теплообменника WP12 Weichai, , шт 91 133.00 ЯРДД 06.05.26
612630010173 WEICHAI Форсунка охлаждения поршня WP12NG Weichai, , шт 23 750.00 ЯРДД 06.05.26
612630010566 WEICHAI Вкладыш коренной пара (612630010088/612630010089) Weichai, , шт 67 470.00 ЯРДД 06.05.26
612630020010 PRC Болт маховика OEM для WEICHAI WP12, , шт 185 88.00 ЯРДД 06.05.26
612630020010 WEICHAI Болт маховика WEICHAI WP12, , шт 12 120.00 ЯРДД 06.05.26
612630020025 WEICHAI Поршневой палец Weichai WP12/WP13 , , шт 81 600.00 ЯРДД 06.05.26
612630020130 WEICHAI Болт М16х1.5х100/100 SHACMAN SHAANXI маховика Weichai, , шт 106 111.00 ЯРДД 06.05.26
612630020214 PRC Болт шатунный OEM для WEICHAI WP12, , шт 212 105.00 ЯРДД 06.05.26
612630030007 PRC Датчик скорости WP7NG для WEICHAI 650-1130544/5340-1130544/0281002315, , шт 215 270.00 ЯРДД 06.05.26
612630030009 WEICHAI Сальник коленвала задний WEICHAI WP12 (1001994648), , шт 81 1730.00 ЯРДД 06.05.26
612630040002 WEICHAI Болт головки цилиндра WP12 L=180 М=14 (1003314752) Weichai, , шт 158 156.00 ЯРДД 06.05.26
612630040028 WEICHAI Кольцо уплотнительное для Weichai, , шт 4 30.00 ЯРДД 06.05.26
612630040029 WEICHAI Уплотнительное кольцо стакана форсунки Weichai, , шт 63 38.00 ЯРДД 06.05.26
612630040117 WEICHAI Штуцер, болт топливный пустотелый (1001423223) Weichai, , шт 61 150.00 ЯРДД 06.05.26
612630040117 PRC Штуцер, болт топливный пустотелый OEM (1001423223) для Weichai, , шт 220 33.00 ЯРДД 06.05.26
612630040138 WEICHAI Трубка пароотводящая Weichai, , шт 4 2968.00 ЯРДД 06.05.26
612630040144 WEICHAI Болт клапанной крышки (612630040264) Weichai, , шт 33 46.00 ЯРДД 06.05.26
612630040146 WEICHAI Пароотводная труба Weichai, , шт 8 1300.00 ЯРДД 06.05.26
612630040246 PRC Головка блока цилиндров (в сборе с клапанами) WP12 E5 для Weichai, , шт 6 43000.00 ЯРДД 06.05.26
612630040246 WEICHAI Головка блока цилиндров (не клапаненная) WP12 E5 Weichai, , шт 5 24500.00 ЯРДД 06.05.26
612630040250 WEICHAI Втулка направляющая клапана WP12NG Weichai 1004718837, , шт 88 170.00 ЯРДД 06.05.26
612630040265 WEICHAI Прокладка клапанной крышки головки блока для WEICHAI WP13.550E501 , , шт 460 170.00 ЯРДД 06.05.26
612630040269 WEICHAI Болт полый WEICHAI, , шт 11 111.00 ЯРДД 06.05.26
612630050001 WEICHAI Клапан впускной WP12 WP10 Weichai, , шт 165 480.00 ЯРДД 06.05.26
612630050009 WEICHAI Мост клапана Weichai, , шт 34 380.00 ЯРДД 06.05.26
612630050012 WEICHAI ГАЙКА ШПИЛЬКИ Weichai WP12, , шт 30 47.00 ЯРДД 06.05.26
612630050013 WEICHAI Шпонка крепления оси коромысел ГБЦ WP12 Weichai, , шт 14 550.00 ЯРДД 06.05.26
612630050100 WEICHAI Стакан штанги WP12 WEICHAI, , шт 70 1046.00 ЯРДД 06.05.26
612630050147 WEICHAI Кронштейн EVB в сборе Weichai, , шт 12 700.00 ЯРДД 06.05.26
612630060015 WEICHAI Сапун WEICHAI, , шт 8 5176.00 ЯРДД 06.05.26
612630060039 WEICHAI Генератор Weichai, , шт 2 30000.00 ЯРДД 06.05.26
612630060057 WEICHAI Ремень поликлиновый WP12 WP10 6РК1324 WEICHAI, , шт 5 1724.00 ЯРДД 06.05.26
612630060067 WEICHAI Прокладка термостата Weichai, , шт 57 95.00 ЯРДД 06.05.26
612630060068 WEICHAI Ролик натяжителя WP13 WP12 Weichai, , шт 24 1670.00 ЯРДД 06.05.26
612630060537 PRC Вентилятор для Weichai D=704mm lдля муфты 612630060538, , шт 8 4500.00 ЯРДД 06.05.26
612630060836 WEICHAI Ролик натяжной WEICHAI, , шт 21 2561.00 ЯРДД 06.05.26
612630060881 WEICHAI Ролик натяжной WP12 WP13 WEICHAI, , шт 9 2100.00 ЯРДД 06.05.26
612630061046 WEICHAI Ремень генератора поликлиновой WEICHAI, , шт 26 933.00 ЯРДД 06.05.26
612630061126 PRC Термостат WP12 для Weichai (Сервис) (76 град.), , шт 19 480.00 ЯРДД 06.05.26
612630080580 Shaanxi/Shacman Колба-отстойник фильтра грубой очистки топлива для Weichai, , шт 2 1680.00 ЯРДД 06.05.26
612630090007 WEICHAI О-образное уплотнительное кольцо форсунки Weichai, , шт 116 36.00 ЯРДД 06.05.26
612630090028 WEICHAI Форсунка топливная WP12 Weichai, , шт 3 19850.00 ЯРДД 06.05.26
612630090055 WEICHAI Форсунка WP10 Weichai, , шт 12 13500.00 ЯРДД 06.05.26
612630110024 WEICHAI Кольцо уплотнительное выпускного коллектора Weichai WP12, , шт 118 324.00 ЯРДД 06.05.26
612630110070 WEICHAI Уплотнительное кольцо патрубка ТКР WP12 Weichai, , шт 25 133.00 ЯРДД 06.05.26
612630110710 WEICHAI Прокладка выпуск.коллектора (WP12) Weichai, , шт 245 117.00 ЯРДД 06.05.26
612630110710 PRC Прокладка выпускного коллектора для Weichai WP12 (612630110048), , шт 2 116.00 ЯРДД 06.05.26
612630110716 WEICHAI Прокладка ТКР WP12 Weichai, , шт 54 265.00 ЯРДД 06.05.26
612630110725 WEICHAI Прокладка турбокомпрессора Weichai, , шт 56 165.00 ЯРДД 06.05.26
612630110736 WEICHAI Выпускной коллектор центральная часть WEICHAI, , шт 4 5376.00 ЯРДД 06.05.26
612630110942 WEICHAI Прокладка выпускного коллектора WEICHAI WP13NG, , шт 18 130.00 ЯРДД 06.05.26
612630110942 PRC Прокладка выпускного коллектора для WEICHAI WP13NG, , шт 2 65.00 ЯРДД 06.05.26
612630120002 WEICHAI Прокладка выпускного коллектора WP12 Weichai, , шт 52 65.00 ЯРДД 06.05.26
612639000039 WEICHAI Уплотнительное кольцо воздушного компрессора Weichai, , шт 36 180.00 ЯРДД 06.05.26
612639000047 WEICHAI Болт пустотелый WEICHAI, , шт 19 86.00 ЯРДД 06.05.26
612639000064 WEICHAI Шайба форсунки для Weichai WP12 , , шт 11 57.00 ЯРДД 06.05.26
612639000072 WEICHAI Кольцо уплотнительное теплообменника WP12 Weichai, , шт 120 59.00 ЯРДД 06.05.26
612639000087 WEICHAI Штифт опоры оси коромысел WEICHAI, , шт 52 12.00 ЯРДД 06.05.26
612640060023 WEICHAI Патрубок помпы(Коннектор водного шланга водяного насоса ) Weichai, , шт 4 547.00 ЯРДД 06.05.26
612640060235 WEICHAI Ремень 6РК1420 WEICHAI WP12, , шт 42 700.00 ЯРДД 06.05.26
612640080004 WEICHAI Блок управления двигателем Weichai WP10 Е4 (0 281 016 894) (Газон некст) , , шт 2 30500.00 ЯРДД 06.05.26
612640120043 WEICHAI Коллектор впускной Weichai, , шт 2 13699.00 ЯРДД 06.05.26
612640130648 WEICHAI Датчик температуры отработанных газов Weichai, , шт 13 4420.00 ЯРДД 06.05.26
612640130719 WEICHAI Патрубок мочевины Weichai, , шт 5 22569.00 ЯРДД 06.05.26
612650020002 Wayteko Поршень BH Wayteko сплав 135+ OEM для Weichai WP10.336E53 (4-е проточки,под 4-ёх клапанную ГБЦ), , шт 17 3500.00 ЯРДД 06.05.26
612650040023 WEICHAI Седло клапана выпускного WP12NG Weichai, , шт 78 950.00 ЯРДД 06.05.26
612650040044 WEICHAI Крышка клапанная WP10 Weichai, , шт 10 2150.00 ЯРДД 06.05.26
612650080075 WEICHAI Блок управления двигателем Weichai, , шт 4 24100.00 ЯРДД 06.05.26
612650110003 WEICHAI Прокладка выпускного коллектора WP12 WEICHAI, , шт 77 121.44 ЯРДД 06.05.26
612660010031 WEICHAI Вкладыш коренные комплект на двигатель (612660010031/612660010032) WP13 Shacman (7+7) для Weichai, , шт 13 7800.00 ЯРДД 06.05.26
612700010010 WEICHAI Гильза WEICHAI WP13.550E501 Shacman (1003659288), , шт 24 2600.00 ЯРДД 06.05.26

Страницы